TimeEST,TemperatureF,Dew PointF,Humidity,Sea Level PressureIn,VisibilityMPH,Wind Direction,Wind SpeedMPH,Gust SpeedMPH,PrecipitationIn,Events,Conditions,WindDirDegrees,DateUTC
12:15 AM,55.4,42.8,63,29.98,10.0,West,3.5,-,N/A,,Clear,270,2014-02-24 05:15:00
12:40 AM,53.6,42.8,67,29.99,10.0,West,4.6,-,N/A,,Clear,280,2014-02-24 05:40:00
12:55 AM,53.6,42.8,67,29.99,10.0,West,4.6,-,N/A,,Clear,280,2014-02-24 05:55:00
1:15 AM,53.6,42.8,67,29.99,10.0,WNW,4.6,-,N/A,,Clear,290,2014-02-24 06:15:00
1:35 AM,53.6,39.2,58,30.01,10.0,North,11.5,-,N/A,,Clear,350,2014-02-24 06:35:00
1:55 AM,51.8,35.6,54,30.01,10.0,North,12.7,20.7,N/A,,Clear,350,2014-02-24 06:55:00
2:15 AM,51.8,35.6,54,30.02,10.0,NNW,10.4,-,N/A,,Clear,340,2014-02-24 07:15:00
2:35 AM,50.0,35.6,58,30.02,10.0,NNW,10.4,16.1,N/A,,Clear,330,2014-02-24 07:35:00
2:55 AM,50.0,35.6,58,30.01,10.0,NNW,13.8,18.4,N/A,,Clear,330,2014-02-24 07:55:00
3:15 AM,50.0,33.8,54,30.01,10.0,NNW,13.8,19.6,N/A,,Clear,340,2014-02-24 08:15:00
3:35 AM,48.2,33.8,58,30.02,10.0,NNW,11.5,-,N/A,,Clear,340,2014-02-24 08:35:00
3:55 AM,48.2,33.8,58,30.02,10.0,NNW,15.0,-,N/A,,Clear,340,2014-02-24 08:55:00
4:15 AM,48.2,33.8,58,30.03,10.0,NNW,17.3,23.0,N/A,,Clear,330,2014-02-24 09:15:00
4:35 AM,46.4,33.8,62,30.04,10.0,NNW,16.1,25.3,N/A,,Clear,340,2014-02-24 09:35:00
4:55 AM,46.4,33.8,62,30.05,10.0,NNW,15.0,20.7,N/A,,Clear,340,2014-02-24 09:55:00
5:15 AM,46.4,33.8,62,30.06,10.0,NNW,15.0,20.7,N/A,,Clear,340,2014-02-24 10:15:00
5:35 AM,44.6,33.8,66,30.07,10.0,NNW,15.0,20.7,N/A,,Clear,340,2014-02-24 10:35:00
5:55 AM,44.6,33.8,66,30.08,10.0,NNW,13.8,-,N/A,,Clear,340,2014-02-24 10:55:00
6:15 AM,44.6,33.8,66,30.08,10.0,NNW,15.0,-,N/A,,Clear,340,2014-02-24 11:15:00
6:35 AM,44.6,33.8,66,30.09,10.0,NNW,15.0,20.7,N/A,,Clear,330,2014-02-24 11:35:00
6:55 AM,42.8,33.8,70,30.09,10.0,NNW,16.1,21.9,N/A,,Clear,340,2014-02-24 11:55:00
7:15 AM,42.8,33.8,70,30.09,10.0,NNW,16.1,-,N/A,,Clear,330,2014-02-24 12:15:00
7:35 AM,42.8,33.8,70,30.10,10.0,NNW,12.7,19.6,N/A,,Clear,340,2014-02-24 12:35:00
7:55 AM,42.8,33.8,70,30.11,10.0,NNW,11.5,-,N/A,,Clear,330,2014-02-24 12:55:00
8:15 AM,42.8,33.8,70,30.12,10.0,NNW,10.4,-,N/A,,Clear,330,2014-02-24 13:15:00
8:35 AM,42.8,33.8,70,30.13,10.0,NNW,10.4,-,N/A,,Clear,330,2014-02-24 13:35:00
8:55 AM,44.6,33.8,66,30.14,10.0,NNW,9.2,-,N/A,,Clear,340,2014-02-24 13:55:00
9:15 AM,44.6,33.8,66,30.14,10.0,North,10.4,-,N/A,,Clear,350,2014-02-24 14:15:00
9:35 AM,46.4,33.8,62,30.14,10.0,NNW,5.8,-,N/A,,Clear,340,2014-02-24 14:35:00
9:55 AM,46.4,33.8,62,30.14,10.0,NNW,5.8,-,N/A,,Clear,340,2014-02-24 14:55:00
10:15 AM,50.0,33.8,54,30.13,10.0,NNW,5.8,-,N/A,,Clear,330,2014-02-24 15:15:00
10:35 AM,51.8,35.6,54,30.13,10.0,North,5.8,-,N/A,,Clear,10,2014-02-24 15:35:00
10:55 AM,51.8,33.8,50,30.14,10.0,NNE,12.7,17.3,N/A,,Clear,20,2014-02-24 15:55:00
11:15 AM,53.6,32.0,44,30.14,10.0,North,6.9,17.3,N/A,,Clear,10,2014-02-24 16:15:00
11:35 AM,55.4,32.0,41,30.14,10.0,North,10.4,16.1,N/A,,Clear,360,2014-02-24 16:35:00
11:55 AM,55.4,32.0,41,30.14,10.0,North,11.5,-,N/A,,Clear,350,2014-02-24 16:55:00
12:15 PM,57.2,30.2,36,30.14,10.0,NNW,12.7,19.6,N/A,,Clear,340,2014-02-24 17:15:00
12:35 PM,59.0,28.4,31,30.13,10.0,North,11.5,18.4,N/A,,Clear,360,2014-02-24 17:35:00
12:55 PM,59.0,28.4,31,30.13,10.0,NNE,11.5,17.3,N/A,,Clear,20,2014-02-24 17:55:00
1:15 PM,60.8,30.2,31,30.12,10.0,North,12.7,17.3,N/A,,Clear,350,2014-02-24 18:15:00
1:35 PM,59.0,26.6,29,30.12,10.0,NNW,16.1,20.7,N/A,,Clear,340,2014-02-24 18:35:00
1:55 PM,59.0,28.4,31,30.11,10.0,North,8.1,17.3,N/A,,Clear,360,2014-02-24 18:55:00
2:15 PM,59.0,30.2,34,30.10,10.0,NNE,8.1,-,N/A,,Clear,20,2014-02-24 19:15:00
2:35 PM,60.8,30.2,31,30.10,10.0,NW,9.2,-,N/A,,Clear,310,2014-02-24 19:35:00
2:55 PM,60.8,30.2,31,30.10,10.0,NNE,8.1,-,N/A,,Clear,20,2014-02-24 19:55:00
3:15 PM,60.8,30.2,31,30.10,10.0,North,9.2,16.1,N/A,,Clear,10,2014-02-24 20:15:00
3:35 PM,60.8,28.4,29,30.10,10.0,NNW,11.5,18.4,N/A,,Clear,330,2014-02-24 20:35:00
3:55 PM,60.8,28.4,29,30.11,10.0,North,8.1,21.9,N/A,,Clear,360,2014-02-24 20:55:00
4:15 PM,60.8,26.6,27,30.11,10.0,NNW,11.5,18.4,N/A,,Clear,340,2014-02-24 21:15:00
4:35 PM,59.0,23.0,25,30.11,10.0,North,10.4,18.4,N/A,,Clear,360,2014-02-24 21:35:00
4:55 PM,59.0,23.0,25,30.10,10.0,NNW,11.5,16.1,N/A,,Clear,340,2014-02-24 21:55:00
5:15 PM,57.2,23.0,27,30.10,10.0,NNW,11.5,16.1,N/A,,Clear,340,2014-02-24 22:15:00
5:35 PM,55.4,23.0,29,30.11,10.0,NNW,9.2,-,N/A,,Clear,330,2014-02-24 22:35:00
5:55 PM,55.4,23.0,29,30.11,10.0,North,8.1,-,N/A,,Clear,350,2014-02-24 22:55:00
6:15 PM,53.6,23.0,30,30.11,10.0,North,5.8,-,N/A,,Clear,350,2014-02-24 23:15:00
6:35 PM,53.6,23.0,30,30.11,10.0,North,3.5,-,N/A,,Clear,350,2014-02-24 23:35:00
6:55 PM,53.6,23.0,30,30.12,10.0,North,3.5,-,N/A,,Clear,350,2014-02-24 23:55:00
7:15 PM,51.8,23.0,33,30.11,10.0,North,3.5,-,N/A,,Clear,10,2014-02-25 00:15:00
7:35 PM,51.8,23.0,33,30.11,10.0,North,4.6,-,N/A,,Clear,360,2014-02-25 00:35:00
7:55 PM,51.8,23.0,33,30.12,10.0,North,3.5,-,N/A,,Clear,10,2014-02-25 00:55:00
8:15 PM,51.8,23.0,33,30.12,10.0,North,3.5,-,N/A,,Clear,10,2014-02-25 01:15:00
8:35 PM,50.0,23.0,35,30.12,10.0,NNW,3.5,-,N/A,,Clear,340,2014-02-25 01:35:00
8:55 PM,50.0,21.2,32,30.11,10.0,North,3.5,-,N/A,,Clear,10,2014-02-25 01:55:00
9:15 PM,50.0,19.4,30,30.11,10.0,Calm,Calm,-,N/A,,Clear,0,2014-02-25 02:15:00
9:35 PM,46.4,23.0,40,30.12,10.0,Calm,Calm,-,N/A,,Clear,0,2014-02-25 02:35:00
9:55 PM,46.4,26.6,46,30.12,10.0,Calm,Calm,-,N/A,,Clear,0,2014-02-25 02:55:00
10:15 PM,46.4,21.2,37,30.12,10.0,Calm,Calm,-,N/A,,Clear,0,2014-02-25 03:15:00
10:35 PM,44.6,21.2,39,30.13,10.0,NW,4.6,-,N/A,,Clear,310,2014-02-25 03:35:00
10:55 PM,46.4,21.2,37,30.11,10.0,NW,3.5,-,N/A,,Clear,310,2014-02-25 03:55:00
11:15 PM,44.6,21.2,39,30.11,10.0,WNW,3.5,-,N/A,,Clear,300,2014-02-25 04:15:00
11:35 PM,44.6,19.4,37,30.10,10.0,NW,5.8,-,N/A,,Clear,310,2014-02-25 04:35:00
11:55 PM,44.6,17.6,34,30.10,10.0,NW,3.5,-,N/A,,Clear,320,2014-02-25 04:55:00